Location: Unspecified
(40.7945°N, 111.1337°W)
Time: 02:00:29
(UTC-06:00)

ISS - Pass Details

Date: 22 March 2019
Orbit: 408 x 410 km, 51.6° (Epoch: 25 April)

Event Time Altitude Azimuth Distance (km) Brightness Sun altitude
Rises 21:49:07 0° 261° (W) 2,322 0.9 -24.7°
Reaches altitude 10° 21:51:23 10° 273° (W) 1,464 -0.1 -25.1°
Enters shadow 21:53:49 27° 319° (NW) 827 -1.7 -25.5°
